Weather History for Ahmedabad, India

Change the Weather History Date:

Friday, May 11, 2012

  Actual Average Record
Temperature  
Mean Temperature 94 °F -  
Max Temperature 107 °F 99 °F 113 °F (2007)
Min Temperature 80 °F 79 °F 75 °F (1998)
Cooling Degree Days 28    
Growing Degree Days 44 (Base 50)    
Moisture  
Dew Point 64 °F    
Average Humidity 40    
Maximum Humidity 73    
Minimum Humidity 15    
Precipitation  
Precipitation 0.00 in 0.07 in - ()
Sea Level Pressure  
Sea Level Pressure 29.73 in    
Wind  
Wind Speed 6 mph ()    
Max Wind Speed 10 mph    
Max Gust Speed -    
Visibility 2.5 miles    
Events      
Averages and records for this station are not official NWS values.
T = Trace of Precipitation, MM = Missing Value Source: Averaged Metar Reports

Daily Weather History Graph

Daily Weather History Graph

Search for Another Location

Airport:

Trip Planner

Search our weather history database for the weather conditions in past years. The results will help you decide how hot, cold, wet, or windy it might be!

Date:

Astronomy

May. 11, 2012 Rise Set
Actual Time 6:00 AM IST 7:11 PM IST
Civil Twilight 5:36 AM IST 7:35 PM IST
Nautical Twilight 5:07 AM IST 8:04 PM IST
Astronomical Twilight 4:38 AM IST 8:33 PM IST
Moon 12:20 AM IST (5/12) 10:59 AM IST (5/11)
Length of Visible Light 13h 59m
Length of Day
13h 11m
Waning Gibbous, 67% of the Moon is Illuminated
May 11
Waning Gibbous
May 13
Last Quarter
May 21
New
May 29
First Quarter
Jun 4
Full

Hourly Weather History & Observations

Time (IST) Temp. Heat Index Dew Point Humidity Pressure Visibility Wind Dir Wind Speed Gust Speed Precip Events Conditions
12:10 AM 89.6 °F 93.4 °F 68.0 °F 49% 29.80 in 2.2 mi West 5.8 mph - N/A   Smoke
12:40 AM 89.6 °F 94.7 °F 69.8 °F 52% 29.80 in 2.2 mi West 5.8 mph - N/A   Smoke
1:10 AM 87.8 °F 93.8 °F 71.6 °F 58% 29.80 in 2.2 mi West 5.8 mph - N/A   Smoke
1:40 AM 87.8 °F 93.8 °F 71.6 °F 58% 29.80 in 2.2 mi West 5.8 mph - N/A   Smoke
2:10 AM 86.0 °F 91.8 °F 71.6 °F 62% 29.77 in 2.2 mi West 5.8 mph - N/A   Smoke
2:30 AM 86 °F - 71 °F 52% 29.77 in 2 mi SSW 5.8 mph - -  
2:40 AM 86.0 °F 91.8 °F 71.6 °F 62% 29.74 in 2.2 mi SW 5.8 mph - N/A   Smoke
3:10 AM 86.0 °F 91.8 °F 71.6 °F 62% 29.74 in 2.2 mi WSW 6.9 mph - N/A   Smoke
3:40 AM 86.0 °F 91.8 °F 71.6 °F 62% 29.74 in 2.2 mi West 5.8 mph - N/A   Smoke
4:10 AM 86.0 °F 91.8 °F 71.6 °F 62% 29.74 in 2.2 mi West 5.8 mph - N/A   Smoke
4:40 AM 86.0 °F 91.8 °F 71.6 °F 62% 29.74 in 2.2 mi West 4.6 mph - N/A   Smoke
5:30 AM 82 °F - 75 °F 73% 29.77 in 2 mi West 3.5 mph - -  
5:40 AM 84.2 °F 88.4 °F 69.8 °F 62% 29.74 in 2.2 mi West 4.6 mph - N/A   Smoke
6:10 AM 84.2 °F 89.6 °F 71.6 °F 66% 29.77 in 2.2 mi West 5.8 mph - N/A   Smoke
7:10 AM 82.4 °F 86.3 °F 69.8 °F 66% 29.80 in 1.9 mi West 5.8 mph - N/A   Haze
7:40 AM 84.2 °F 88.4 °F 69.8 °F 62% 29.80 in 1.9 mi West 5.8 mph - N/A   Haze
8:10 AM 86.0 °F 91.8 °F 71.6 °F 62% 29.83 in 1.9 mi West 5.8 mph - N/A   Haze
8:30 AM 84 °F - 75 °F 67% 29.82 in 2 mi SW 3.5 mph - -  
8:40 AM 86.0 °F 93.4 °F 73.4 °F 66% 29.83 in 1.9 mi WSW 4.6 mph - N/A   Haze
9:40 AM 89.6 °F 99.8 °F 75.2 °F 62% 29.83 in 2.2 mi WSW 4.6 mph - N/A   Haze
10:10 AM 93.2 °F 102.4 °F 73.4 °F 52% 29.83 in 2.5 mi SW 4.6 mph - N/A   Smoke
10:40 AM 93.2 °F 100.5 °F 71.6 °F 49% 29.83 in 2.5 mi West 4.6 mph - N/A   Smoke
11:10 AM 95.0 °F 103.2 °F 71.6 °F 47% 29.80 in 2.5 mi WNW 6.9 mph - N/A   Smoke
11:30 AM 93 °F - 72 °F 40% 29.80 in 2 mi NW 5.8 mph - -   Scattered Clouds
12:10 PM 98.6 °F 105.5 °F 69.8 °F 39% 29.77 in 3.1 mi WNW 6.9 mph - N/A   Smoke
12:40 PM 98.6 °F 104.1 °F 68.0 °F 37% 29.77 in 3.7 mi West 9.2 mph - N/A   Unknown
1:10 PM 100.4 °F 103.6 °F 64.4 °F 31% 29.74 in 3.7 mi WNW 9.2 mph - N/A   Unknown
1:40 PM 102.2 °F 105.5 °F 64.4 °F 29% 29.74 in 3.7 mi NNW 6.9 mph - N/A   Unknown
2:10 PM 104.0 °F 106.6 °F 62.6 °F 26% 29.71 in 3.7 mi WNW 10.4 mph - N/A   Unknown
2:30 PM 102 °F - 65 °F 21% 29.71 in 2 mi WSW 3.5 mph - -  
2:40 PM 105.8 °F 106.8 °F 59.0 °F 22% 29.71 in 3.7 mi West 9.2 mph - N/A   Unknown
3:10 PM 107.6 °F 109.7 °F 60.8 °F 22% 29.68 in 3.7 mi West 5.8 mph - N/A   Unknown
3:40 PM 107.6 °F 108.2 °F 59.0 °F 20% 29.65 in 3.7 mi West 4.6 mph - N/A   Unknown
4:10 PM 107.6 °F 106.1 °F 53.6 °F 17% - 3.7 mi SW 8.1 mph - N/A   Unknown
4:40 PM 107.6 °F 106.1 °F 53.6 °F 17% 29.65 in 3.7 mi WSW 5.8 mph - N/A   Unknown
5:10 PM 107.6 °F 106.1 °F 53.6 °F 17% 29.62 in 3.7 mi SW 9.2 mph - N/A   Unknown
5:30 PM 104 °F - 59 °F 15% 29.63 in 2 mi SW 3.5 mph - -  
5:40 PM 107.6 °F - 51.8 °F 16% 29.62 in 3.7 mi WNW 6.9 mph - N/A   Unknown
6:40 PM 105.8 °F 104.9 °F 55.4 °F 19% 29.62 in 3.1 mi West 8.1 mph - N/A   Smoke
7:10 PM 104.0 °F 102.9 °F 55.4 °F 20% 29.62 in 2.5 mi West 5.8 mph - N/A   Smoke
7:40 PM 102.2 °F 100.9 °F 55.4 °F 21% 29.65 in 2.5 mi West 5.8 mph - N/A   Smoke
8:10 PM 102.2 °F 100.4 °F 53.6 °F 20% 29.65 in 2.2 mi West 4.6 mph - N/A   Smoke
8:30 PM 97 °F - 58 °F 18% 29.65 in 2 mi NW 3.5 mph - -  
8:40 PM 100.4 °F 98.4 °F 53.6 °F 21% 29.65 in 2.2 mi WNW 4.6 mph - N/A   Smoke
9:10 PM 98.6 °F - 50.0 °F 19% 29.65 in 2.2 mi West 6.9 mph - N/A   Smoke
9:40 PM 96.8 °F - 51.8 °F 22% 29.68 in 2.2 mi WSW 6.9 mph - N/A   Smoke
10:10 PM 95.0 °F 92.7 °F 53.6 °F 25% 29.71 in 2.2 mi SW 5.8 mph - N/A   Smoke
10:40 PM 95.0 °F 92.7 °F 53.6 °F 25% 29.71 in 2.2 mi West 9.2 mph - N/A   Smoke
11:10 PM 95.0 °F 93.0 °F 55.4 °F 26% 29.71 in 2.2 mi West 10.4 mph - N/A   Smoke
11:30 PM 86 °F - 64 °F 38% 29.71 in 2 mi NW 4.6 mph - -  
11:40 PM 93.2 °F 91.9 °F 57.2 °F 30% 29.71 in 2.2 mi West 8.1 mph - N/A   Smoke